Tracking 28565 objects as of 3-Mar-2024
HD Live streaming from Space Station
objects crossing your sky now

STARLINK-4441

Track STARLINK-4441 now!
10-day predictions
STARLINK-4441 is classified as:


NORAD ID: 53510
Int'l Code: 2022-099AX
Perigee: 569.0 km
Apogee: 571.3 km
Inclination: 97.7 °
Period: 95.9 minutes
Semi major axis: 6941 km
RCS: Unknown
Launch date: August 12, 2022
Source: United States (US)
Launch site: AIR FORCE WESTERN TEST RANGE (AFWTR)
Your satellite tracking list
Your tracking list is empty




NASA's NSSDC Master Catalog

Two Line Element Set (TLE):
1 53510U 22099AX  24063.21712139  .00001614  00000-0  13021-3 0  9999
2 53510  97.6558 185.5906 0001694  92.7252 267.4166 15.01261966 85739
Source of the keplerian elements: AFSPC